Home   Weather   São Luis   Past weeks

Flag for Brazil Past Weather in São Luis, Maranhão, Brazil — Yesterday and Last 2 Weeks

Now
81 °F

Clear.


Feels Like: 85 °F
Forecast: 79 / 87 °F
Wind: 14 mph from Northeast

Location: Sao Luiz Aeroporto

Current Time: Sep 27, 2016 at 9:14:44 PM

Latest Report: Sep 27, 2016 at 9:00 PM


Visibility: 10 mi

Pressure: 29.89 "Hg

Humidity: 74%

Dew Point: 72 °F

Location of São LuisLocation

Past Weather in São Luis — Graph

°F

São Luis Temperature Yesterday

Maximum temperature yesterday: 88 °F (at 1:00 PM)
Minimum temperature yesterday: 77 °F (at 12:00 AM)
Average temperature yesterday: 81 °F

High & Low Weather Summary for the Past Weeks

 TemperatureHumidityPressure
High91 °F (Sep 16, 2:00 PM)79% (Sep 13, 3:00 AM)30.01 "Hg (Sep 13, 3:00 AM)
Low77 °F (Sep 13, 6:00 AM)46% (Sep 23, 4:00 PM)29.83 "Hg (Sep 13, 3:00 PM)
Average82 °F67%29.90 "Hg
* Reported Sep 12 8:00 PM — Sep 27 8:00 PM, São Luis, Weather by CustomWeather, © 2016

Note: Actual official high and low records may vary slightly from our data, if they occured in-between our weather recording intervals... More about our weather records

Advertising

São Luis Weather History for the Previous 24 Hours

Scroll right to see more
 ConditionsComfort  
Time TempWeatherWind HumidityBarometerVisibility
8:00 PM
Tue, Sep 27
81 °FPassing clouds.15 mph74%29.86 "HgN/A
7:00 PM81 °FPassing clouds.16 mph74%29.86 "HgN/A
6:00 PM81 °FPassing clouds.16 mph74%29.83 "HgN/A
5:00 PM82 °FScattered clouds.18 mph66%29.83 "HgN/A
4:00 PM86 °FPassing clouds.18 mph59%29.83 "HgN/A
3:00 PM88 °FPassing clouds.20 mph55%29.83 "HgN/A
2:00 PM88 °FPartly sunny.18 mph55%29.83 "HgN/A
1:00 PM90 °FScattered clouds.10 mph52%29.89 "HgN/A
12:00 PM88 °FScattered clouds.8 mph55%29.92 "HgN/A
11:00 AM86 °FScattered clouds.14 mph59%29.92 "HgN/A
10:00 AM86 °FScattered clouds.13 mph55%29.95 "HgN/A
9:00 AM84 °FScattered clouds.14 mph58%29.95 "HgN/A
8:00 AM82 °FScattered clouds.12 mph66%29.95 "HgN/A
7:00 AM81 °FPassing clouds.7 mph70%29.92 "HgN/A
6:00 AM79 °FPassing clouds.6 mph74%29.92 "HgN/A
5:00 AM77 °FClear.6 mph79%29.89 "Hg10 mi
4:00 AM79 °FClear.7 mph74%29.89 "Hg10 mi
3:00 AM79 °FClear.9 mph74%29.89 "Hg10 mi
2:00 AM79 °FClear.8 mph74%29.89 "Hg10 mi
1:00 AM79 °FClear.6 mph74%29.89 "Hg10 mi
12:00 AM79 °FClear.9 mph74%29.89 "Hg10 mi
11:00 PM
Mon, Sep 26
79 °FClear.9 mph74%29.92 "Hg10 mi
10:00 PM79 °FClear.7 mph74%29.92 "Hg10 mi
9:00 PM79 °FPassing clouds.10 mph74%29.89 "HgN/A
Weather by CustomWeather, © 2016

See weather overviewHow to use our weather pages